TimeEST,TemperatureF,Dew PointF,Humidity,Sea Level PressureIn,VisibilityMPH,Wind Direction,Wind SpeedMPH,Gust SpeedMPH,PrecipitationIn,Events,Conditions,WindDirDegrees,DateUTC
12:15 AM,21.2,21.2,100,30.36,10.0,Calm,Calm,-,N/A,,Clear,0,2013-12-01 05:15:00
12:35 AM,21.4,21.4,100,30.35,10.0,Calm,Calm,-,N/A,,Clear,0,2013-12-01 05:35:00
12:55 AM,20.7,20.7,100,30.34,10.0,Calm,Calm,-,N/A,,Clear,0,2013-12-01 05:55:00
1:15 AM,20.7,20.7,100,30.33,10.0,Calm,Calm,-,N/A,,Clear,0,2013-12-01 06:15:00
1:35 AM,20.7,20.7,100,30.33,10.0,Calm,Calm,-,N/A,,Clear,0,2013-12-01 06:35:00
1:55 AM,20.3,20.3,100,30.32,7.0,Calm,Calm,-,N/A,,Clear,0,2013-12-01 06:55:00
2:15 AM,20.7,20.7,100,30.31,10.0,Calm,Calm,-,N/A,,Clear,0,2013-12-01 07:15:00
2:35 AM,20.1,20.1,100,30.31,10.0,Calm,Calm,-,N/A,,Clear,0,2013-12-01 07:35:00
2:55 AM,20.1,20.1,100,30.30,10.0,Calm,Calm,-,N/A,,Clear,0,2013-12-01 07:55:00
3:15 AM,20.3,20.3,100,30.30,10.0,Calm,Calm,-,N/A,,Clear,0,2013-12-01 08:15:00
3:35 AM,19.9,19.9,100,30.29,10.0,Calm,Calm,-,N/A,,Clear,0,2013-12-01 08:35:00
3:55 AM,19.8,19.8,100,30.28,10.0,Calm,Calm,-,N/A,,Clear,0,2013-12-01 08:55:00
4:15 AM,19.6,19.6,100,30.28,10.0,Calm,Calm,-,N/A,,Clear,0,2013-12-01 09:15:00
4:35 AM,20.3,20.3,100,30.27,10.0,Calm,Calm,-,N/A,,Clear,0,2013-12-01 09:35:00
4:55 AM,19.6,19.6,100,30.26,10.0,Calm,Calm,-,N/A,,Clear,0,2013-12-01 09:55:00
5:15 AM,18.9,18.9,100,30.26,10.0,Calm,Calm,-,N/A,,Clear,0,2013-12-01 10:15:00
5:35 AM,19.4,19.4,100,30.26,10.0,Calm,Calm,-,N/A,,Scattered Clouds,0,2013-12-01 10:35:00
5:55 AM,19.6,19.6,100,30.25,10.0,Calm,Calm,-,N/A,,Clear,0,2013-12-01 10:55:00
6:15 AM,19.0,19.0,100,30.25,10.0,Calm,Calm,-,N/A,,Clear,0,2013-12-01 11:15:00
6:35 AM,19.2,19.2,100,30.25,10.0,Calm,Calm,-,N/A,,Clear,0,2013-12-01 11:35:00
6:55 AM,19.2,19.2,100,30.24,10.0,Calm,Calm,-,N/A,,Clear,0,2013-12-01 11:55:00
7:15 AM,18.5,18.5,100,30.24,10.0,Calm,Calm,-,N/A,,Clear,0,2013-12-01 12:15:00
7:35 AM,19.9,19.9,100,30.24,10.0,Calm,Calm,-,N/A,,Scattered Clouds,0,2013-12-01 12:35:00
7:55 AM,21.7,21.7,100,30.24,10.0,Calm,Calm,-,N/A,,Mostly Cloudy,0,2013-12-01 12:55:00
8:15 AM,23.0,23.0,100,30.24,10.0,Calm,Calm,-,N/A,,Scattered Clouds,0,2013-12-01 13:15:00
8:35 AM,25.7,25.7,100,30.24,10.0,Calm,Calm,-,N/A,,Clear,0,2013-12-01 13:35:00
8:55 AM,27.5,27.3,99,30.23,10.0,Calm,Calm,-,N/A,,Clear,0,2013-12-01 13:55:00
9:15 AM,30.6,28.9,94,30.23,10.0,Calm,Calm,-,N/A,,Clear,0,2013-12-01 14:15:00
9:35 AM,32.0,29.8,92,30.23,10.0,Calm,Calm,-,N/A,,Clear,0,2013-12-01 14:35:00
9:55 AM,33.4,30.4,89,30.23,10.0,Calm,Calm,-,N/A,,Clear,0,2013-12-01 14:55:00
10:15 AM,34.9,30.6,84,30.22,10.0,Calm,Calm,-,N/A,,Clear,0,2013-12-01 15:15:00
10:35 AM,35.8,31.1,83,30.21,10.0,Calm,Calm,-,N/A,,Mostly Cloudy,0,2013-12-01 15:35:00
10:55 AM,35.6,31.5,85,30.20,10.0,Calm,Calm,-,N/A,,Overcast,0,2013-12-01 15:55:00
11:15 AM,39.6,32.0,74,30.18,10.0,Calm,Calm,-,N/A,,Overcast,0,2013-12-01 16:15:00
11:35 AM,41.9,32.4,69,30.17,10.0,South,3.5,-,N/A,,Mostly Cloudy,170,2013-12-01 16:35:00
11:55 AM,42.8,33.1,69,30.16,10.0,Calm,Calm,-,N/A,,Scattered Clouds,0,2013-12-01 16:55:00
12:15 PM,43.7,33.3,67,30.15,10.0,Calm,Calm,-,N/A,,Clear,0,2013-12-01 17:15:00
12:35 PM,45.5,33.6,63,30.15,10.0,Calm,Calm,-,N/A,,Clear,0,2013-12-01 17:35:00
12:55 PM,45.7,34.0,64,30.13,10.0,Calm,Calm,-,N/A,,Clear,0,2013-12-01 17:55:00
1:15 PM,46.2,33.4,61,30.13,10.0,Calm,Calm,-,N/A,,Clear,0,2013-12-01 18:15:00
1:35 PM,47.3,33.4,59,30.12,10.0,South,3.5,-,N/A,,Mostly Cloudy,180,2013-12-01 18:35:00
1:55 PM,47.1,32.9,58,30.11,10.0,Calm,Calm,-,N/A,,Mostly Cloudy,0,2013-12-01 18:55:00
2:15 PM,49.3,33.3,54,30.10,10.0,Calm,Calm,-,N/A,,Overcast,0,2013-12-01 19:15:00
2:35 PM,50.0,33.3,53,30.09,10.0,Calm,Calm,-,N/A,,Scattered Clouds,0,2013-12-01 19:35:00
2:55 PM,50.2,32.9,52,30.08,10.0,Calm,Calm,-,N/A,,Clear,0,2013-12-01 19:55:00
3:15 PM,51.3,33.1,50,30.08,10.0,Calm,Calm,-,N/A,,Mostly Cloudy,0,2013-12-01 20:15:00
3:35 PM,50.5,34.0,53,30.08,10.0,Calm,Calm,-,N/A,,Scattered Clouds,0,2013-12-01 20:35:00
3:55 PM,48.2,34.0,58,30.08,10.0,North,3.5,-,N/A,,Clear,350,2013-12-01 20:55:00
4:15 PM,45.1,33.6,64,30.08,10.0,Calm,Calm,-,N/A,,Clear,0,2013-12-01 21:15:00
4:35 PM,41.7,32.7,70,30.08,10.0,Calm,Calm,-,N/A,,Clear,0,2013-12-01 21:35:00
4:55 PM,38.5,32.0,78,30.08,10.0,Calm,Calm,-,N/A,,Scattered Clouds,0,2013-12-01 21:55:00
5:15 PM,38.5,32.5,79,30.07,10.0,SE,3.5,-,N/A,,Mostly Cloudy,130,2013-12-01 22:15:00
5:35 PM,36.7,32.7,86,30.07,10.0,Calm,Calm,-,N/A,,Overcast,0,2013-12-01 22:35:00
5:55 PM,39.0,32.9,79,30.07,10.0,Calm,Calm,-,N/A,,Overcast,0,2013-12-01 22:55:00
6:15 PM,37.9,34.0,86,30.07,10.0,Calm,Calm,-,N/A,,Overcast,0,2013-12-01 23:15:00
6:35 PM,38.7,34.3,84,30.07,10.0,Calm,Calm,-,N/A,,Overcast,0,2013-12-01 23:35:00
6:55 PM,38.5,35.2,88,30.06,10.0,Calm,Calm,-,N/A,,Overcast,0,2013-12-01 23:55:00
7:15 PM,39.0,35.1,86,30.06,10.0,Calm,Calm,-,N/A,,Overcast,0,2013-12-02 00:15:00
7:35 PM,38.7,35.8,89,30.06,10.0,Calm,Calm,-,N/A,,Overcast,0,2013-12-02 00:35:00
7:55 PM,39.0,35.4,87,30.05,10.0,Calm,Calm,-,N/A,,Overcast,0,2013-12-02 00:55:00
8:15 PM,38.8,35.6,88,30.05,10.0,Calm,Calm,-,N/A,,Overcast,0,2013-12-02 01:15:00
8:35 PM,39.2,35.2,86,30.05,10.0,Calm,Calm,-,N/A,,Overcast,0,2013-12-02 01:35:00
8:55 PM,38.5,35.8,90,30.04,10.0,Calm,Calm,-,N/A,,Overcast,0,2013-12-02 01:55:00
9:15 PM,38.3,35.6,90,30.04,10.0,Calm,Calm,-,N/A,,Overcast,0,2013-12-02 02:15:00
9:35 PM,37.8,35.6,92,30.04,10.0,Calm,Calm,-,N/A,,Overcast,0,2013-12-02 02:35:00
9:55 PM,37.6,35.6,93,30.04,10.0,Calm,Calm,-,N/A,,Overcast,0,2013-12-02 02:55:00
10:15 PM,37.8,35.8,93,30.04,10.0,Calm,Calm,-,N/A,,Overcast,0,2013-12-02 03:15:00
10:35 PM,37.8,36.0,93,30.03,10.0,Calm,Calm,-,N/A,,Overcast,0,2013-12-02 03:35:00
10:55 PM,38.3,36.5,93,30.02,10.0,Calm,Calm,-,N/A,,Overcast,0,2013-12-02 03:55:00
11:15 PM,38.5,36.0,91,30.02,10.0,Calm,Calm,-,N/A,,Overcast,0,2013-12-02 04:15:00
11:35 PM,39.0,36.0,89,30.01,10.0,Calm,Calm,-,N/A,,Overcast,0,2013-12-02 04:35:00
11:55 PM,37.9,36.0,93,30.01,10.0,Calm,Calm,-,N/A,,Overcast,0,2013-12-02 04:55:00